Total_Precipitation_Accumulation
0.24 0.22 0.27 0.35 0.37 0.45 0.59 0.77 0.99 0.89 0.69 0.57 0.56 0.52 0.54 0.60 0.52 0.46 0.42 0.40 0.38 0.34 0.34 0.36 0.39 0.48 0.55 0.67 0.82 0.95 1.01 0.96 0.88 0.82 0.72 0.64 0.58 0.51 0.52 0.49 0.48 0.55 0.71 0.89
0.10 0.13 0.18 0.29 0.42 0.55 0.61 0.68 0.71 0.62 0.58 0.44 0.39 0.35 0.36 0.41 0.40 0.38 0.33 0.29 0.26 0.25 0.23 0.25 0.31 0.38 0.38 0.49 0.64 0.76 0.81 0.83 0.85 0.81 0.64 0.56 0.49 0.42 0.40 0.42 0.43 0.45 0.53 0.70
0.10 0.10 0.19 0.41 0.54 0.60 0.59 0.55 0.47 0.43 0.39 0.28 0.25 0.19 0.19 0.25 0.29 0.31 0.29 0.24 0.22 0.21 0.22 0.24 0.31 0.34 0.34 0.42 0.54 0.58 0.62 0.66 0.69 0.66 0.52 0.46 0.36 0.32 0.35 0.36 0.39 0.42 0.47 0.59
0.16 0.15 0.37 0.62 0.52 0.46 0.49 0.39 0.24 0.22 0.22 0.20 0.16 0.13 0.10 0.11 0.13 0.15 0.17 0.17 0.22 0.19 0.18 0.20 0.25 0.31 0.40 0.41 0.42 0.44 0.47 0.50 0.50 0.50 0.45 0.38 0.30 0.29 0.31 0.34 0.39 0.40 0.43 0.49
0.27 0.28 0.45 0.57 0.38 0.35 0.41 0.36 0.18 0.13 0.12 0.10 0.08 0.07 0.05 0.05 0.07 0.08 0.07 0.08 0.11 0.11 0.11 0.12 0.12 0.14 0.16 0.18 0.21 0.24 0.33 0.39 0.42 0.42 0.39 0.33 0.29 0.35 0.41 0.41 0.41 0.39 0.39 0.41
0.35 0.42 0.54 0.40 0.16 0.16 0.28 0.42 0.16 0.08 0.06 0.05 0.05 0.06 0.04 0.05 0.06 0.05 0.03 0.03 0.05 0.07 0.06 0.06 0.06 0.06 0.05 0.06 0.10 0.14 0.20 0.26 0.32 0.35 0.38 0.40 0.48 0.56 0.57 0.53 0.48 0.42 0.39 0.38
0.42 0.61 0.61 0.36 0.14 0.16 0.30 0.43 0.22 0.08 0.04 0.03 0.03 0.03 0.02 0.04 0.05 0.04 0.02 0.02 0.03 0.05 0.05 0.05 0.05 0.03 0.02 0.02 0.03 0.03 0.05 0.10 0.20 0.33 0.39 0.48 0.58 0.60 0.59 0.54 0.45 0.40 0.38 0.36
0.54 0.70 0.78 0.39 0.20 0.24 0.22 0.14 0.11 0.05 0.03 0.02 0.02 0.02 0.03 0.03 0.03 0.02 0.03 0.02 0.03 0.04 0.04 0.06 0.06 0.04 0.03 0.02 0.02 0.02 0.04 0.08 0.14 0.22 0.32 0.45 0.54 0.52 0.51 0.50 0.47 0.43 0.44 0.41
0.53 0.58 0.49 0.29 0.19 0.14 0.10 0.09 0.04 0.02 0.01 0.01 0.02 0.03 0.03 0.04 0.03 0.02 0.02 0.03 0.04 0.05 0.05 0.06 0.05 0.06 0.05 0.04 0.04 0.03 0.03 0.04 0.07 0.13 0.24 0.38 0.41 0.41 0.44 0.46 0.45 0.43 0.42 0.40
0.22 0.16 0.15 0.12 0.09 0.05 0.04 0.04 0.01 0.01 0.01 0.01 0.02 0.02 0.02 0.02 0.03 0.03 0.03 0.03 0.03 0.03 0.04 0.04 0.03 0.04 0.05 0.05 0.05 0.04 0.03 0.02 0.02 0.04 0.07 0.12 0.17 0.21 0.27 0.32 0.33 0.33 0.35 0.39
0.21 0.11 0.06 0.05 0.04 0.03 0.02 0.02 0.01 0.00 0.01 0.01 0.02 0.02 0.02 0.01 0.02 0.03 0.03 0.03 0.02 0.02 0.03 0.03 0.02 0.02 0.03 0.04 0.05 0.05 0.04 0.03 0.03 0.04 0.06 0.06 0.08 0.11 0.14 0.17 0.20 0.26 0.31 0.35
0.20 0.13 0.07 0.04 0.03 0.02 0.02 0.01 0.01 0.01 0.00 0.00 0.01 0.01 0.02 0.01 0.01 0.01 0.02 0.03 0.03 0.03 0.03 0.04 0.03 0.02 0.02 0.02 0.03 0.04 0.06 0.04 0.02 0.02 0.03 0.04 0.05 0.06 0.07 0.08 0.11 0.13 0.16 0.19
0.09 0.08 0.06 0.06 0.05 0.03 0.02 0.01 0.01 0.01 0.00 0.00 0.00 0.01 0.02 0.01 0.01 0.01 0.01 0.02 0.03 0.03 0.03 0.04 0.04 0.03 0.02 0.01 0.02 0.03 0.05 0.05 0.04 0.02 0.03 0.04 0.05 0.07 0.07 0.05 0.04 0.04 0.06 0.10
0.04 0.06 0.06 0.05 0.03 0.02 0.01 0.01 0.01 0.01 0.00 0.00 0.00 0.00 0.01 0.01 0.01 0.01 0.02 0.02 0.03 0.03 0.03 0.02 0.02 0.02 0.02 0.02 0.02 0.02 0.03 0.04 0.05 0.07 0.09 0.06 0.06 0.10 0.13 0.15 0.11 0.05 0.03 0.05
0.03 0.04 0.05 0.04 0.01 0.01 0.00 0.00 0.01 0.01 0.01 0.00 0.00 0.00 0.00 0.00 0.01 0.01 0.01 0.01 0.02 0.02 0.03 0.02 0.02 0.02 0.02 0.02 0.02 0.02 0.02 0.03 0.05 0.09 0.09 0.10 0.13 0.15 0.14 0.14 0.13 0.09 0.05 0.03
0.03 0.02 0.03 0.02 0.01 0.01 0.01 0.01 0.01 0.01 0.01 0.01 0.01 0.01 0.00 0.00 0.00 0.00 0.01 0.01 0.01 0.01 0.02 0.03 0.03 0.02 0.02 0.02 0.02 0.02 0.02 0.02 0.03 0.05 0.07 0.08 0.10 0.12 0.11 0.10 0.09 0.07 0.06 0.06
0.02 0.01 0.01 0.01 0.01 0.01 0.01 0.01 0.01 0.01 0.01 0.01 0.01 0.01 0.00 0.00 0.00 0.00 0.00 0.01 0.01 0.01 0.01 0.02 0.03 0.04 0.03 0.02 0.02 0.02 0.02 0.03 0.03 0.04 0.05 0.05 0.05 0.06 0.07 0.07 0.06 0.05 0.04 0.04
0.02 0.01 0.01 0.01 0.01 0.01 0.01 0.01 0.01 0.01 0.01 0.01 0.01 0.01 0.01 0.01 0.01 0.01 0.01 0.01 0.01 0.01 0.00 0.01 0.02 0.04 0.04 0.03 0.02 0.02 0.02 0.03 0.03 0.04 0.07 0.06 0.05 0.05 0.06 0.07 0.07 0.06 0.06 0.05
0.03 0.02 0.02 0.02 0.01 0.01 0.02 0.01 0.01 0.01 0.01 0.01 0.01 0.01 0.01 0.02 0.02 0.01 0.02 0.02 0.01 0.01 0.01 0.01 0.01 0.02 0.03 0.03 0.03 0.03 0.03 0.03 0.04 0.05 0.07 0.06 0.06 0.07 0.07 0.07 0.08 0.08 0.10 0.10
0.04 0.04 0.04 0.03 0.03 0.02 0.02 0.02 0.02 0.02 0.01 0.01 0.02 0.02 0.02 0.02 0.01 0.01 0.01 0.02 0.02 0.02 0.02 0.02 0.02 0.02 0.03 0.05 0.06 0.05 0.05 0.05 0.05 0.07 0.07 0.09 0.09 0.09 0.09 0.09 0.09 0.10 0.11 0.13
0.06 0.06 0.05 0.05 0.05 0.04 0.04 0.04 0.03 0.03 0.03 0.02 0.03 0.03 0.02 0.01 0.01 0.01 0.02 0.02 0.02 0.03 0.03 0.03 0.04 0.04 0.04 0.07 0.08 0.06 0.05 0.06 0.06 0.07 0.08 0.11 0.13 0.13 0.14 0.13 0.12 0.13 0.13 0.14
0.08 0.08 0.07 0.06 0.06 0.06 0.06 0.05 0.05 0.05 0.05 0.04 0.04 0.04 0.03 0.03 0.03 0.03 0.03 0.03 0.04 0.05 0.05 0.06 0.06 0.07 0.08 0.09 0.08 0.08 0.08 0.08 0.08 0.10 0.10 0.12 0.15 0.18 0.18 0.17 0.16 0.15 0.15 0.17
0.08 0.08 0.08 0.07 0.07 0.06 0.06 0.07 0.07 0.07 0.07 0.07 0.06 0.06 0.06 0.06 0.07 0.07 0.08 0.08 0.07 0.09 0.09 0.09 0.10 0.11 0.12 0.10 0.10 0.10 0.10 0.11 0.12 0.13 0.15 0.15 0.15 0.18 0.21 0.21 0.21 0.20 0.20 0.21
0.10 0.09 0.08 0.07 0.07 0.07 0.09 0.10 0.10 0.10 0.10 0.10 0.10 0.10 0.10 0.10 0.11 0.12 0.12 0.12 0.12 0.11 0.10 0.10 0.12 0.12 0.12 0.10 0.13 0.14 0.14 0.14 0.16 0.17 0.20 0.22 0.21 0.22 0.23 0.24 0.26 0.26 0.25 0.26
0.13 0.11 0.09 0.09 0.10 0.11 0.13 0.12 0.11 0.10 0.10 0.10 0.09 0.09 0.10 0.10 0.11 0.13 0.13 0.14 0.15 0.14 0.12 0.13 0.15 0.16 0.14 0.13 0.16 0.18 0.19 0.19 0.20 0.21 0.22 0.24 0.25 0.26 0.27 0.27 0.28 0.28 0.29 0.30
0.10 0.08 0.08 0.08 0.08 0.09 0.10 0.09 0.10 0.10 0.10 0.09 0.09 0.10 0.10 0.11 0.12 0.13 0.14 0.14 0.14 0.15 0.14 0.13 0.13 0.13 0.14 0.16 0.18 0.19 0.20 0.21 0.21 0.21 0.22 0.25 0.27 0.28 0.30 0.32 0.32 0.33 0.33 0.34
0.08 0.08 0.07 0.07 0.06 0.06 0.07 0.08 0.09 0.11 0.12 0.14 0.15 0.15 0.15 0.15 0.15 0.15 0.14 0.13 0.14 0.15 0.15 0.16 0.16 0.15 0.16 0.18 0.19 0.20 0.21 0.21 0.21 0.22 0.25 0.27 0.30 0.32 0.34 0.35 0.36 0.38 0.40 0.41